Time,TemperatureF,DewpointF,PressureIn,WindDirection,WindDirectionDegrees,WindSpeedMPH,WindSpeedGustMPH,Humidity,HourlyPrecipIn,Conditions,Clouds,dailyrainin,SoftwareType,DateUTC
2013-02-08 00:01:00,50.5,47.1,30.08,NNE,22,4.3,-999.0,88,-99.99,,,0.00,Acu-Link.com,2013-02-08 06:01:00,
2013-02-08 00:16:00,49.8,46.7,30.09,North,0,2.7,-999.0,89,-99.99,,,0.00,Acu-Link.com,2013-02-08 06:16:00,
2013-02-08 00:31:00,49.1,46.6,30.09,NNW,337,2.7,-999.0,91,-99.99,,,0.00,Acu-Link.com,2013-02-08 06:31:00,
2013-02-08 00:46:00,48.9,46.7,30.09,NNE,22,3.8,-999.0,92,-99.99,,,0.00,Acu-Link.com,2013-02-08 06:46:00,
2013-02-08 01:01:00,48.9,47.0,30.09,NE,45,3.8,-999.0,93,-99.99,,,0.00,Acu-Link.com,2013-02-08 07:01:00,
2013-02-08 01:17:00,48.4,46.5,30.10,NNW,337,3.1,-999.0,93,-99.99,,,0.00,Acu-Link.com,2013-02-08 07:17:00,
2013-02-08 01:32:00,48.4,46.5,30.09,NNE,22,5.8,-999.0,93,-99.99,,,0.00,Acu-Link.com,2013-02-08 07:32:00,
2013-02-08 01:47:00,47.7,45.5,30.09,NNW,337,4.3,-999.0,92,-99.99,,,0.00,Acu-Link.com,2013-02-08 07:47:00,
2013-02-08 02:02:00,47.7,45.2,30.10,NNW,337,4.3,-999.0,91,-99.99,,,0.00,Acu-Link.com,2013-02-08 08:02:00,
2013-02-08 02:17:00,47.5,45.0,30.10,NE,45,4.7,-999.0,91,-99.99,,,0.00,Acu-Link.com,2013-02-08 08:17:00,
2013-02-08 02:33:00,47.1,44.3,30.10,ENE,67,4.3,-999.0,90,-99.99,,,0.00,Acu-Link.com,2013-02-08 08:33:00,
2013-02-08 02:48:00,46.8,43.4,30.10,NE,45,3.8,-999.0,88,-99.99,,,0.00,Acu-Link.com,2013-02-08 08:48:00,
2013-02-08 03:03:00,46.8,42.8,30.10,NNW,337,7.8,-999.0,86,-99.99,,,0.00,Acu-Link.com,2013-02-08 09:03:00,
2013-02-08 03:18:00,46.4,42.1,30.11,North,0,4.3,-999.0,85,-99.99,,,0.00,Acu-Link.com,2013-02-08 09:18:00,
2013-02-08 03:33:00,46.0,41.8,30.10,NNW,337,5.1,-999.0,85,-99.99,,,0.00,Acu-Link.com,2013-02-08 09:33:00,
2013-02-08 03:49:00,45.3,41.1,30.11,North,0,2.7,-999.0,85,-99.99,,,0.00,Acu-Link.com,2013-02-08 09:49:00,
2013-02-08 04:04:00,45.0,41.0,30.12,NE,45,4.7,-999.0,86,-99.99,,,0.00,Acu-Link.com,2013-02-08 10:04:00,
2013-02-08 04:19:00,44.6,40.7,30.11,NNW,337,6.3,-999.0,86,-99.99,,,0.00,Acu-Link.com,2013-02-08 10:19:00,
2013-02-08 04:34:00,44.4,40.5,30.10,North,0,3.8,-999.0,86,-99.99,,,0.00,Acu-Link.com,2013-02-08 10:34:00,
2013-02-08 04:50:00,43.5,39.6,30.11,NNW,337,3.8,-999.0,86,-99.99,,,0.00,Acu-Link.com,2013-02-08 10:50:00,
2013-02-08 05:05:00,43.0,39.4,30.11,NNW,337,3.1,-999.0,87,-99.99,,,0.00,Acu-Link.com,2013-02-08 11:05:00,
2013-02-08 05:20:00,43.7,39.2,30.12,NNE,22,2.2,-999.0,84,-99.99,,,0.00,Acu-Link.com,2013-02-08 11:20:00,
2013-02-08 05:35:00,42.8,38.6,30.13,NNE,22,1.6,-999.0,85,-99.99,,,0.00,Acu-Link.com,2013-02-08 11:35:00,
2013-02-08 05:50:00,41.4,37.8,30.13,SSE,157,0.0,-999.0,87,-99.99,,,0.00,Acu-Link.com,2013-02-08 11:50:00,
2013-02-08 06:06:00,40.1,37.7,30.13,NNE,22,0.0,-999.0,91,-99.99,,,0.00,Acu-Link.com,2013-02-08 12:06:00,
2013-02-08 06:21:00,39.0,37.2,30.14,NNE,22,2.2,-999.0,93,-99.99,,,0.00,Acu-Link.com,2013-02-08 12:21:00,
2013-02-08 06:36:00,41.2,37.9,30.14,NNE,22,4.7,-999.0,88,-99.99,,,0.00,Acu-Link.com,2013-02-08 12:36:00,
2013-02-08 06:51:00,41.7,37.5,30.13,East,90,5.8,-999.0,85,-99.99,,,0.00,Acu-Link.com,2013-02-08 12:51:00,
2013-02-08 07:06:00,41.7,37.5,30.14,ENE,67,5.1,-999.0,85,-99.99,,,0.00,Acu-Link.com,2013-02-08 13:06:00,
2013-02-08 07:22:00,41.4,37.5,30.14,ENE,67,4.3,-999.0,86,-99.99,,,0.00,Acu-Link.com,2013-02-08 13:22:00,
2013-02-08 07:37:00,41.0,37.4,30.14,NNW,337,3.1,-999.0,87,-99.99,,,0.00,Acu-Link.com,2013-02-08 13:37:00,
2013-02-08 07:52:00,41.0,37.7,30.15,North,0,2.7,-999.0,88,-99.99,,,0.00,Acu-Link.com,2013-02-08 13:52:00,
2013-02-08 08:07:00,41.9,38.0,30.16,North,0,5.8,-999.0,86,-99.99,,,0.00,Acu-Link.com,2013-02-08 14:07:00,
2013-02-08 08:22:00,43.0,37.9,30.17,NNE,22,4.7,-999.0,82,-99.99,,,0.00,Acu-Link.com,2013-02-08 14:22:00,
2013-02-08 08:38:00,44.2,38.1,30.17,NE,45,4.7,-999.0,79,-99.99,,,0.00,Acu-Link.com,2013-02-08 14:38:00,
2013-02-08 08:53:00,46.2,37.7,30.18,West,270,4.3,-999.0,72,-99.99,,,0.00,Acu-Link.com,2013-02-08 14:53:00,
2013-02-08 09:08:00,47.7,36.5,30.18,ENE,67,5.1,-999.0,65,-99.99,,,0.00,Acu-Link.com,2013-02-08 15:08:00,
2013-02-08 09:23:00,49.3,34.7,30.18,ENE,67,4.7,-999.0,57,-99.99,,,0.00,Acu-Link.com,2013-02-08 15:23:00,
2013-02-08 09:39:00,50.9,34.4,30.19,NE,45,5.8,-999.0,53,-99.99,,,0.00,Acu-Link.com,2013-02-08 15:39:00,
2013-02-08 09:54:00,52.3,33.8,30.18,East,90,8.3,-999.0,49,-99.99,,,0.00,Acu-Link.com,2013-02-08 15:54:00,
2013-02-08 10:09:00,53.2,33.5,30.18,NNE,22,6.7,-999.0,47,-99.99,,,0.00,Acu-Link.com,2013-02-08 16:09:00,
2013-02-08 10:24:00,54.1,33.8,30.18,NE,45,6.7,-999.0,46,-99.99,,,0.00,Acu-Link.com,2013-02-08 16:24:00,
2013-02-08 10:39:00,54.9,33.4,30.17,NE,45,7.4,-999.0,44,-99.99,,,0.00,Acu-Link.com,2013-02-08 16:39:00,
2013-02-08 10:55:00,55.9,32.6,30.17,East,90,6.7,-999.0,41,-99.99,,,0.00,Acu-Link.com,2013-02-08 16:55:00,
2013-02-08 11:10:00,57.0,31.7,30.18,ENE,67,8.3,-999.0,38,-99.99,,,0.00,Acu-Link.com,2013-02-08 17:10:00,
2013-02-08 11:25:00,57.9,31.8,30.18,NE,45,3.1,-999.0,37,-99.99,,,0.00,Acu-Link.com,2013-02-08 17:25:00,
2013-02-08 11:40:00,57.6,32.1,30.18,East,90,3.8,-999.0,38,-99.99,,,0.00,Acu-Link.com,2013-02-08 17:40:00,
2013-02-08 11:55:00,59.2,34.2,30.18,East,90,4.3,-999.0,39,-99.99,,,0.00,Acu-Link.com,2013-02-08 17:55:00,
2013-02-08 12:11:00,60.4,33.4,30.17,NNE,22,7.8,-999.0,36,-99.99,,,0.00,Acu-Link.com,2013-02-08 18:11:00,
2013-02-08 12:26:00,61.7,33.0,30.16,NE,45,6.3,-999.0,34,-99.99,,,0.00,Acu-Link.com,2013-02-08 18:26:00,
2013-02-08 12:56:00,62.6,30.7,30.14,NE,45,4.3,-999.0,30,-99.99,,,0.00,Acu-Link.com,2013-02-08 18:56:00,
2013-02-08 13:11:00,63.5,29.8,30.13,NE,45,10.3,-999.0,28,-99.99,,,0.00,Acu-Link.com,2013-02-08 19:11:00,
2013-02-08 13:27:00,63.3,28.8,30.11,NE,45,4.7,-999.0,27,-99.99,,,0.00,Acu-Link.com,2013-02-08 19:27:00,
2013-02-08 13:42:00,66.4,28.5,30.09,ESE,112,4.7,-999.0,24,-99.99,,,0.00,Acu-Link.com,2013-02-08 19:42:00,
2013-02-08 13:57:00,64.9,27.3,30.09,WSW,247,3.1,-999.0,24,-99.99,,,0.00,Acu-Link.com,2013-02-08 19:57:00,
2013-02-08 14:12:00,64.8,25.0,30.09,NNE,22,4.7,-999.0,22,-99.99,,,0.00,Acu-Link.com,2013-02-08 20:12:00,
2013-02-08 14:28:00,66.4,26.4,30.07,ENE,67,6.3,-999.0,22,-99.99,,,0.00,Acu-Link.com,2013-02-08 20:28:00,
2013-02-08 14:43:00,65.5,26.7,30.07,NE,45,2.7,-999.0,23,-99.99,,,0.00,Acu-Link.com,2013-02-08 20:43:00,
2013-02-08 14:58:00,64.8,25.0,30.07,ESE,112,2.2,-999.0,22,-99.99,,,0.00,Acu-Link.com,2013-02-08 20:58:00,
2013-02-08 15:13:00,67.1,27.0,30.06,SSW,202,2.7,-999.0,22,-99.99,,,0.00,Acu-Link.com,2013-02-08 21:13:00,
2013-02-08 15:28:00,66.2,26.2,30.06,NE,45,6.7,-999.0,22,-99.99,,,0.00,Acu-Link.com,2013-02-08 21:28:00,
2013-02-08 15:44:00,66.9,25.7,30.05,SSE,157,5.1,-999.0,21,-99.99,,,0.00,Acu-Link.com,2013-02-08 21:44:00,
2013-02-08 15:59:00,67.3,8.9,30.04,SE,135,2.7,-999.0,10,-99.99,,,0.00,Acu-Link.com,2013-02-08 21:59:00,
2013-02-08 16:14:00,66.4,12.3,30.04,SE,135,1.6,-999.0,12,-99.99,,,0.00,Acu-Link.com,2013-02-08 22:14:00,
2013-02-08 16:30:00,65.3,25.5,30.03,East,90,2.2,-999.0,22,-99.99,,,0.00,Acu-Link.com,2013-02-08 22:30:00,
2013-02-08 16:45:00,64.8,26.1,30.03,ENE,67,3.1,-999.0,23,-99.99,,,0.00,Acu-Link.com,2013-02-08 22:45:00,
2013-02-08 17:00:00,65.3,24.4,30.03,WSW,247,2.2,-999.0,21,-99.99,,,0.00,Acu-Link.com,2013-02-08 23:00:00,
2013-02-08 17:15:00,63.9,25.3,30.03,ENE,67,1.6,-999.0,23,-99.99,,,0.00,Acu-Link.com,2013-02-08 23:15:00,
2013-02-08 17:30:00,63.1,24.7,30.02,NNE,22,3.8,-999.0,23,-99.99,,,0.00,Acu-Link.com,2013-02-08 23:30:00,
2013-02-08 17:46:00,62.2,26.0,30.02,ENE,67,3.1,-999.0,25,-99.99,,,0.00,Acu-Link.com,2013-02-08 23:46:00,
2013-02-08 18:01:00,60.8,25.7,30.02,NE,45,2.2,-999.0,26,-99.99,,,0.00,Acu-Link.com,2013-02-09 00:01:00,
2013-02-08 18:16:00,59.2,26.1,30.02,SW,225,0.0,-999.0,28,-99.99,,,0.00,Acu-Link.com,2013-02-09 00:16:00,
2013-02-08 18:31:00,56.7,27.9,30.02,WSW,247,0.0,-999.0,33,-99.99,,,0.00,Acu-Link.com,2013-02-09 00:31:00,
2013-02-08 18:46:00,53.8,26.1,30.02,ENE,67,0.0,-999.0,34,-99.99,,,0.00,Acu-Link.com,2013-02-09 00:46:00,
2013-02-08 19:02:00,51.8,26.4,30.02,NE,45,0.0,-999.0,37,-99.99,,,0.00,Acu-Link.com,2013-02-09 01:02:00,
2013-02-08 19:17:00,49.5,26.2,30.03,NNE,22,0.0,-999.0,40,-99.99,,,0.00,Acu-Link.com,2013-02-09 01:17:00,
2013-02-08 19:32:00,47.8,25.9,30.03,NNE,22,0.0,-999.0,42,-99.99,,,0.00,Acu-Link.com,2013-02-09 01:32:00,
2013-02-08 19:47:00,46.6,26.4,30.03,NNE,22,0.0,-999.0,45,-99.99,,,0.00,Acu-Link.com,2013-02-09 01:47:00,
2013-02-08 20:03:00,45.7,27.1,30.02,NNE,22,0.0,-999.0,48,-99.99,,,0.00,Acu-Link.com,2013-02-09 02:03:00,
2013-02-08 20:18:00,45.1,27.6,30.03,NNE,22,0.0,-999.0,50,-99.99,,,0.00,Acu-Link.com,2013-02-09 02:18:00,
2013-02-08 20:33:00,45.3,27.8,30.02,NW,315,0.0,-999.0,50,-99.99,,,0.00,Acu-Link.com,2013-02-09 02:33:00,
2013-02-08 20:48:00,46.0,28.5,30.02,South,180,1.1,-999.0,50,-99.99,,,0.00,Acu-Link.com,2013-02-09 02:48:00,
2013-02-08 21:03:00,46.8,29.1,30.02,ESE,112,0.0,-999.0,50,-99.99,,,0.00,Acu-Link.com,2013-02-09 03:03:00,
2013-02-08 21:18:00,47.7,29.9,30.04,SW,225,0.0,-999.0,50,-99.99,,,0.00,Acu-Link.com,2013-02-09 03:18:00,
2013-02-08 21:34:00,48.2,29.9,30.04,WNW,292,1.1,-999.0,49,-99.99,,,0.00,Acu-Link.com,2013-02-09 03:34:00,
2013-02-08 21:49:00,49.1,29.8,30.03,South,180,0.0,-999.0,47,-99.99,,,0.00,Acu-Link.com,2013-02-09 03:49:00,
2013-02-08 22:04:00,49.1,29.8,30.03,SSW,202,1.6,-999.0,47,-99.99,,,0.00,Acu-Link.com,2013-02-09 04:04:00,
2013-02-08 22:19:00,48.6,30.3,30.04,SSE,157,0.0,-999.0,49,-99.99,,,0.00,Acu-Link.com,2013-02-09 04:19:00,
2013-02-08 22:34:00,48.7,29.9,30.03,East,90,1.1,-999.0,48,-99.99,,,0.00,Acu-Link.com,2013-02-09 04:34:00,
2013-02-08 22:50:00,50.0,30.0,30.02,SW,225,1.6,-999.0,46,-99.99,,,0.00,Acu-Link.com,2013-02-09 04:50:00,
2013-02-08 23:05:00,51.4,31.4,30.00,SSE,157,4.3,-999.0,46,-99.99,,,0.00,Acu-Link.com,2013-02-09 05:05:00,
2013-02-08 23:20:00,51.4,31.9,30.02,SSE,157,0.0,-999.0,47,-99.99,,,0.00,Acu-Link.com,2013-02-09 05:20:00,
2013-02-08 23:35:00,51.1,32.6,30.02,South,180,2.7,-999.0,49,-99.99,,,0.00,Acu-Link.com,2013-02-09 05:35:00,
2013-02-08 23:50:00,52.0,33.9,29.99,East,90,2.2,-999.0,50,-99.99,,,0.00,Acu-Link.com,2013-02-09 05:50:00,